EW5411 Weather Reports


time (UTC)temp
C
wind
direction
speed
KPH
gust
KPH
rain 1hr
cm
rain 24hr
cm
rain mn
cm
humidity
%
barometer
mb
20260507201502 14 264 9.7 17.7 0.00 1.35 0.28 74 1008.5
20260507200002 14 234 8.0 19.3 0.00 1.35 0.28 73 1008.6
20260507194501 13 146 0.0 14.5 0.00 1.35 0.28 78 1008.8
20260507193100 13 232 3.2 12.9 0.00 1.35 0.28 75 1009.0
20260507191600 13 213 1.6 11.3 0.00 1.35 0.28 75 1009.3
20260507190100 13 146 3.2 22.5 0.00 1.35 0.28 74 1009.3
20260507184605 13 221 1.6 14.5 0.00 1.35 0.28 74 1009.4
20260507183058 13 237 4.8 14.5 0.00 1.35 0.28 72 1009.4
20260507181604 14 161 3.2 9.7 0.00 1.35 0.28 73 1009.8
20260507180057 13 158 9.7 19.3 0.00 1.35 0.28 74 1009.9
20260507174606 14 200 3.2 19.3 0.00 1.35 0.28 71 1010.1
20260507173055 13 223 3.2 12.9 0.00 1.35 0.28 73 1010.1
20260507171602 13 161 4.8 11.3 0.00 1.35 0.28 67 1010.2
20260507170055 13 115 4.8 9.7 0.00 1.35 0.28 72 1010.5
20260507164553 12 267 1.6 8.0 0.00 1.35 0.28 72 1010.8
20260507163055 12 241 1.6 9.7 0.00 1.35 0.28 74 1011.0
20260507161551 12 242 1.6 6.4 0.00 1.35 0.28 79 1011.5
20260507160054 12 240 3.2 8.0 0.00 1.35 0.28 76 1011.6
20260507154551 12 237 1.6 8.0 0.00 1.35 0.28 76 1011.7
20260507153058 12 313 0.0 3.2 0.00 1.35 0.28 71 1011.3
20260507151549 11 77 0.0 3.2 0.00 1.35 0.28 79 1011.4
20260507150047 11 217 0.0 1.6 0.00 1.35 0.28 77 1011.6
20260507144547 11 158 4.8 8.0 0.00 1.37 0.28 78 1011.7
20260507143047 11 113 0.0 4.8 0.00 1.37 0.28 81 1011.9
20260507141546 11 26 0.0 4.8 0.00 1.37 0.28 80 1012.1
20260507140048 11 37 0.0 6.4 0.00 1.37 0.28 81 1012.2
20260507134544 11 200 1.6 9.7 0.00 1.50 0.28 83 1012.1
20260507133044 11 60 0.0 9.7 0.00 1.50 0.28 85 1012.0
20260507131553 11 64 0.0 8.0 0.00 1.50 0.28 86 1012.1
20260507130045 11 41 1.6 4.8 0.00 1.50 0.28 88 1012.1
20260507124547 11 336 1.6 4.8 0.00 1.63 0.28 87 1012.1
20260507123037 11 156 0.0 4.8 0.00 1.63 0.28 90 1012.0
20260507121535 11 163 1.6 3.2 0.00 1.63 0.28 92 1011.6
20260507120040 11 86 1.6 4.8 0.00 1.63 0.28 93 1011.5
20260507114534 11 269 0.0 1.6 0.00 1.65 0.28 94 1011.5
20260507113033 11 269 0.0 1.6 0.00 1.65 0.28 94 1011.3
20260507111531 11 269 0.0 3.2 0.00 1.65 0.28 94 1011.3
20260507110030 11 288 0.0 3.2 0.00 1.65 0.28 94 1011.1
20260507104529 11 240 0.0 4.8 0.00 1.65 0.28 95 1011.0
20260507103026 11 185 0.0 3.2 0.00 1.65 0.28 94 1011.0
20260507101526 11 244 0.0 3.2 0.00 1.65 0.28 94 1010.9
20260507100033 11 101 0.0 3.2 0.00 1.65 0.28 94 1010.7
20260507094523 11 5 0.0 0.0 0.00 1.65 0.28 92 1010.5
20260507093021 11 5 0.0 3.2 0.00 1.65 0.28 89 1010.5
20260507091519 12 323 0.0 4.8 0.00 1.65 0.28 86 1010.5
20260507090022 12 313 1.6 8.0 0.00 1.65 0.28 86 1010.2
20260507084519 11 323 1.6 4.8 0.00 1.65 0.28 87 1009.9
20260507083014 12 331 1.6 9.7 0.00 1.65 0.28 88 1010.1
20260507081525 12 300 3.2 14.5 0.00 1.65 0.28 87 1010.3
20260507080009 12 340 4.8 11.3 0.00 1.65 0.28 88 1010.1
20260507074515 12 300 3.2 4.8 0.00 1.65 0.28 95 1010.0
20260507073005 12 148 1.6 8.0 0.00 1.65 0.28 95 1009.3
20260507071506 12 38 0.0 1.6 0.00 1.65 0.28 95 1009.5
20260507070009 12 51 1.6 6.4 0.00 1.65 0.28 94 1009.2
20260507064507 12 5 0.0 4.8 0.00 1.65 0.28 94 1009.6
20260507063059 13 320 3.2 8.0 0.00 1.65 0.28 94 1009.5
20260507061601 13 13 1.6 6.4 0.00 1.65 0.28 95 1009.3
20260507054637 13 85 4.8 14.5 0.00 1.65 0.28 94 1009.9
20260507053053 14 211 3.2 4.8 0.03 1.65 0.28 96 1009.3
20260507051549 15 281 3.2 6.4 0.08 1.65 0.28 96 1009.3
20260507050054 15 253 3.2 9.7 0.28 1.65 0.28 95 1008.8
20260507044552 15 234 3.2 11.3 0.28 1.65 0.28 95 1008.6
20260507043045 16 268 1.6 12.9 0.28 1.63 0.25 95 1008.8
20260507041542 16 190 4.8 6.4 0.30 1.57 0.20 96 1008.4
20260507040038 16 288 3.2 4.8 0.56 1.37 0.00 96 1009.5
20260507034536 16 162 0.0 3.2 0.76 1.37 1.37 96 1009.3
20260507033034 16 5 1.6 4.8 0.76 1.35 1.35 95 1009.4
20260507031534 16 355 1.6 4.8 0.71 1.27 1.27 95 1009.1
20260507030041 17 297 0.0 3.2 0.23 0.79 0.79 95 1008.9
20260507024538 17 338 1.6 3.2 0.05 0.61 0.61 95 1008.8
20260507023032 17 150 0.0 3.2 0.03 0.58 0.58 95 1008.7
20260507021531 17 20 0.0 4.8 0.00 0.56 0.56 95 1008.6
20260507020031 17 18 1.6 4.8 0.08 0.56 0.56 95 1008.3
20260507014544 17 325 0.0 4.8 0.08 0.56 0.56 95 1008.3
20260507013028 17 341 0.0 1.6 0.13 0.56 0.56 94 1008.1
20260507011532 17 351 0.0 3.2 0.25 0.56 0.56 94 1008.4
20260507010032 17 20 0.0 3.2 0.18 0.48 0.48 93 1008.5
20260507004526 17 325 0.0 4.8 0.18 0.48 0.48 92 1008.4
20260507003026 17 355 3.2 6.4 0.13 0.43 0.43 91 1008.1
20260507001527 18 290 0.0 6.4 0.00 0.30 0.30 88 1007.9
20260507000032 18 246 0.0 3.2 0.00 0.30 0.30 85 1007.5
20260506234523 19 239 0.0 6.4 0.00 0.30 0.30 82 1007.7
20260506233023 20 206 0.0 8.0 0.00 0.30 0.30 81 1007.4
20260506231522 20 226 0.0 11.3 0.00 0.30 0.30 80 1007.2
20260506230021 20 217 1.6 6.4 0.00 0.30 0.30 80 1006.9
20260506224521 20 360 3.2 9.7 0.00 0.30 0.30 79 1007.3
20260506223019 20 226 4.8 12.9 0.00 0.30 0.30 79 1007.3
20260506221520 20 254 3.2 16.1 0.00 0.30 0.30 80 1007.1
20260506220023 20 181 3.2 14.5 0.00 0.30 0.30 79 1007.1
20260506214518 20 212 3.2 9.7 0.00 0.30 0.30 79 1006.9
20260506213016 20 205 3.2 11.3 0.00 0.30 0.30 79 1007.0
20260506211513 20 222 0.0 8.0 0.00 0.30 0.30 81 1007.0
20260506210012 20 218 1.6 11.3 0.00 0.30 0.30 81 1006.8
20260506204515 20 238 4.8 12.9 0.00 0.30 0.30 81 1006.7
20260506203011 19 226 3.2 14.5 0.00 0.30 0.30 81 1006.7